Wind_Speed
16 16 10 8 7 7 15 11 6 5 7 4 13 5 7 6 4 4 19 17 22 19 19 19 17 18 17 19 19 19 18 17 14 16 19 19 18 18 18 17 17 16 15 16 17 17 17 17 18
14 12 10 10 8 12 12 9 7 9 11 16 10 6 7 8 9 18 19 20 22 19 18 19 18 18 18 18 18 18 18 15 17 19 22 18 18 17 17 17 17 17 16 16 16 17 17 17 19
15 13 9 5 10 15 10 10 8 10 15 18 7 5 4 6 14 21 21 23 22 20 20 20 20 19 18 18 18 18 17 17 17 19 22 19 17 16 18 17 15 14 15 15 15 15 15 15 16
16 9 8 10 17 18 13 6 14 14 13 13 13 10 7 2 21 19 24 23 21 21 19 21 21 20 18 17 17 17 15 14 18 18 19 20 17 18 18 17 16 14 13 13 13 14 14 14 15
14 12 9 14 20 15 9 2 15 16 15 18 15 9 12 15 14 26 24 23 21 21 21 22 20 18 17 17 17 16 15 17 17 18 17 17 16 16 17 15 14 13 13 13 14 15 14 12 13
13 14 11 16 20 15 7 11 15 16 16 16 11 14 10 13 24 24 23 22 20 23 23 22 18 16 17 15 16 17 18 17 16 16 15 14 13 14 13 12 11 11 12 13 13 13 12 10 11
15 11 17 18 18 16 13 12 15 15 15 17 18 11 13 21 24 27 23 22 22 21 22 20 18 16 16 18 18 19 17 16 14 14 13 12 12 11 11 10 11 11 12 12 12 11 10 10 10
17 12 21 19 16 18 15 14 15 15 14 15 17 7 12 30 27 26 24 22 23 21 19 19 18 18 19 19 19 18 17 14 14 14 12 11 10 9 10 10 10 10 10 11 10 9 10 10 10
13 9 16 24 19 16 15 14 14 9 15 12 11 9 22 34 32 28 27 24 22 22 22 20 21 20 18 19 17 17 15 13 13 13 12 10 10 9 8 8 9 9 8 8 8 8 8 7 7
12 13 20 19 16 16 17 17 20 15 17 11 11 12 30 37 33 33 31 29 25 22 21 19 19 21 19 17 16 14 12 11 11 11 9 9 8 7 7 7 7 7 6 6 6 6 8 11 6
17 16 17 18 17 17 19 19 20 20 16 21 21 29 32 38 32 35 28 28 27 24 23 23 21 24 21 17 17 13 12 10 9 9 8 7 8 7 5 6 5 4 6 4 4 4 4 4 4
12 20 20 10 9 9 16 18 18 21 13 17 20 28 36 38 33 35 32 29 27 27 25 23 19 20 22 17 15 13 10 9 8 8 8 8 7 8 6 5 5 5 4 4 4 4 4 4 4
13 18 16 6 10 15 17 18 17 21 7 16 23 27 33 36 33 27 29 26 28 26 25 24 22 19 20 17 16 14 11 9 8 8 8 8 7 7 6 6 5 4 4 4 4 4 4 4 4
17 10 20 11 13 10 15 12 17 19 13 22 27 27 31 35 31 29 27 29 29 25 26 24 23 21 19 18 15 13 11 10 8 7 8 7 6 7 6 6 5 5 5 4 5 3 3 3 4
16 11 9 11 12 7 16 10 13 21 19 25 26 27 30 30 29 30 29 29 30 24 26 27 24 23 20 18 16 14 12 10 8 8 9 8 6 7 6 5 4 4 4 3 3 3 3 3 3
10 15 13 15 12 5 17 17 18 20 24 25 26 26 28 29 29 27 27 26 25 30 27 26 28 23 20 18 17 14 13 10 8 8 8 8 7 7 6 5 3 4 3 4 4 3 3 2 3
13 15 22 19 14 6 14 16 19 20 23 25 26 27 27 28 28 27 27 27 25 28 30 30 29 25 20 17 16 15 13 13 10 8 7 7 8 7 5 5 4 4 3 4 3 3 4 2 2
25 20 23 20 14 10 15 16 18 22 23 25 26 26 27 27 29 27 27 27 25 24 27 29 29 26 20 18 17 16 17 16 12 9 9 8 8 7 6 6 5 3 3 3 3 2 3 3 3
17 20 22 19 13 14 16 12 16 22 22 23 26 27 27 26 27 26 26 26 26 26 25 28 29 26 23 22 21 20 20 17 15 11 13 10 8 8 8 7 5 4 3 3 3 3 2 3 5
16 24 18 5 7 13 17 17 12 16 22 27 29 28 27 26 27 28 27 27 26 27 26 24 24 24 24 23 22 23 20 18 17 16 13 11 9 9 8 8 6 4 3 3 3 4 4 4 7
15 23 17 12 6 12 14 15 12 14 16 21 23 24 26 30 30 31 29 30 28 28 28 26 26 26 25 25 25 24 22 20 20 19 16 14 11 10 9 8 8 6 4 3 3 3 5 4 5
16 17 14 13 14 11 16 12 17 15 16 16 23 25 26 28 28 30 32 32 33 31 29 27 27 28 28 25 29 27 25 25 22 21 20 17 15 13 12 11 10 7 6 4 3 4 6 7 5
10 7 12 11 12 11 12 9 18 19 16 17 21 25 27 29 31 32 34 34 33 31 32 30 28 30 30 32 31 28 27 24 20 23 22 21 19 16 15 11 10 9 8 5 4 5 7 7 8
11 16 11 4 6 5 15 15 18 21 20 20 24 28 28 29 30 31 33 35 35 35 34 33 32 33 33 31 34 32 29 23 23 20 27 24 23 19 18 15 11 11 10 6 4 6 7 8 8
12 14 5 4 4 7 17 13 15 17 20 21 21 29 31 31 30 32 34 35 36 38 40 38 37 36 36 35 35 34 31 29 25 26 25 27 26 23 21 20 16 13 13 10 6 5 7 7 7
21 18 9 9 10 11 1 10 10 19 9 25 24 28 29 27 29 33 36 37 38 39 41 41 41 38 38 37 37 38 35 33 32 29 24 25 26 25 24 23 21 17 16 13 10 8 6 6 7
15 17 15 2 1 11 10 8 5 10 5 7 15 15 28 32 33 33 32 34 36 38 42 43 41 40 40 40 38 37 38 38 36 33 29 26 23 23 26 24 25 22 20 19 14 12 10 10 10
14 15 5 3 5 8 10 17 9 17 15 11 11 15 18 24 29 29 30 32 33 34 37 41 43 43 43 41 40 39 40 39 36 35 34 31 28 27 27 25 26 26 21 24 20 16 15 15 13
8 14 11 11 4 3 4 6 10 12 14 15 14 19 20 23 22 22 25 26 30 32 36 40 41 41 42 43 42 40 39 42 40 40 38 34 32 32 28 26 28 27 25 24 24 21 20 18 15
17 19 20 10 13 2 2 1 5 4 4 3 9 8 9 10 14 18 24 28 30 34 34 38 41 42 44 43 44 42 40 39 43 42 40 37 36 35 30 28 29 28 26 26 27 24 24 20 18
Wind_Direction
176 166 165 186 226 229 239 229 262 141 152 104 128 113 138 35 146 62 136 142 138 137 146 141 138 135 135 131 130 126 127 125 126 126 127 121 118 114 109 110 109 109 108 100 96 98 99 99 96
174 173 189 229 241 220 231 209 197 167 117 134 120 138 150 85 70 133 135 143 137 140 135 142 140 138 136 133 130 130 126 118 116 114 127 124 112 110 109 114 109 108 109 107 103 100 98 100 100
177 179 219 219 224 242 236 157 199 115 148 144 115 133 93 90 122 137 142 140 135 138 144 146 142 138 137 133 132 131 126 119 115 113 121 128 116 115 122 116 112 107 105 106 102 98 101 104 105
171 193 246 231 219 229 256 133 122 148 152 162 136 110 92 116 140 144 144 138 139 153 149 143 144 141 140 137 136 132 126 127 118 115 116 121 122 114 112 110 107 108 109 101 98 98 98 103 105
183 217 223 222 234 223 216 175 156 167 166 167 163 120 105 124 140 142 141 141 145 145 147 144 147 145 147 148 147 140 134 128 123 117 115 118 115 116 112 112 111 104 99 98 94 95 95 98 101
185 222 212 217 221 219 217 188 171 184 170 164 150 124 131 148 147 146 144 144 149 149 144 145 148 145 145 144 139 133 130 127 124 121 123 115 113 115 114 113 110 108 106 102 98 100 97 99 97
217 207 223 219 221 208 197 186 181 184 174 163 149 121 138 153 155 151 149 149 149 146 145 144 150 151 147 132 130 130 133 132 132 127 126 124 122 116 119 117 114 111 107 105 102 103 98 97 94
197 228 233 223 216 210 192 186 182 183 179 160 164 157 168 163 163 152 152 154 150 148 149 144 146 146 141 139 135 137 136 140 130 129 124 122 117 115 114 118 114 111 108 106 106 100 93 85 86
196 217 215 223 219 202 152 175 189 164 141 160 179 164 162 162 157 159 157 160 154 157 157 157 153 153 142 138 137 140 142 134 130 129 127 110 116 128 128 118 111 107 107 105 103 98 90 75 71
195 214 213 218 222 200 176 176 167 163 168 163 155 124 150 161 161 162 161 162 164 161 155 155 167 152 151 148 139 144 139 129 139 138 132 132 126 136 132 123 121 121 113 105 98 94 86 70 51
209 217 223 230 222 245 177 194 176 182 179 177 168 151 158 162 165 165 162 163 165 164 163 171 169 160 157 142 157 145 139 149 140 148 143 152 141 113 105 101 92 111 89 77 81 84 100 111 93
214 217 219 228 233 256 181 179 186 187 189 179 169 165 162 168 169 168 168 164 168 168 166 173 172 165 164 155 164 147 151 148 148 152 151 142 146 140 138 144 131 115 111 106 95 81 90 88 89
224 192 217 212 210 229 184 182 184 184 138 162 160 163 167 171 172 172 169 170 177 168 169 170 167 168 170 159 164 156 166 151 157 149 148 149 150 144 141 129 127 116 110 105 105 102 91 98 87
185 201 202 208 201 213 190 183 193 176 150 152 161 168 169 175 176 176 176 176 179 176 176 172 168 174 169 170 164 157 164 164 157 163 154 149 148 142 147 137 133 134 132 131 143 131 118 109 118
179 183 195 192 189 199 198 176 201 164 163 154 165 170 173 177 181 185 183 181 181 178 190 174 175 179 177 172 169 170 168 168 167 165 168 160 160 152 147 146 132 161 158 143 127 128 116 96 82
168 205 193 188 184 197 206 199 198 164 165 162 168 173 177 183 187 189 187 186 191 183 186 184 178 183 184 179 172 175 178 170 171 169 167 164 163 157 147 135 157 160 144 146 139 128 111 115 121
186 194 201 179 192 161 207 215 164 172 172 165 169 174 179 182 188 192 189 187 191 193 195 193 187 185 182 179 180 179 186 180 172 176 177 176 169 161 156 155 166 134 137 145 139 146 147 136 154
187 199 197 185 188 206 195 234 154 176 181 172 170 175 180 183 188 190 191 190 191 194 196 201 196 191 188 191 187 184 191 189 196 179 185 186 177 176 170 178 182 160 142 152 161 183 183 170 156
190 208 194 200 170 195 196 173 172 180 188 179 174 177 183 186 186 188 189 191 192 194 195 199 199 194 191 196 196 194 198 201 197 183 202 181 194 187 185 195 186 169 170 194 193 208 199 178 160
204 199 191 147 150 210 199 217 173 185 191 189 181 179 184 184 188 190 190 192 193 196 196 198 196 196 197 203 203 206 208 212 208 203 205 202 193 208 195 205 202 206 217 218 216 216 217 205 182
211 193 185 168 169 223 195 215 179 200 203 198 193 186 187 188 189 192 194 196 196 197 198 198 198 199 199 208 201 208 212 210 210 210 209 213 201 213 215 210 211 215 217 227 229 213 191 209 187
175 203 181 161 175 185 208 213 198 183 196 202 196 194 190 193 195 196 197 199 200 200 200 198 200 199 199 206 204 212 206 208 213 215 214 217 211 221 220 222 224 212 210 216 218 198 183 178 181
154 187 155 175 197 196 191 236 200 187 199 199 205 200 197 196 195 198 200 202 201 201 204 201 201 199 201 211 204 208 210 216 218 219 219 219 220 228 225 227 230 212 210 210 210 192 186 188 186
136 125 121 136 200 245 211 211 228 193 200 200 202 201 200 197 198 200 204 202 201 203 205 205 202 203 204 209 207 210 212 203 205 218 211 216 222 224 229 227 229 217 212 207 201 193 190 187 186
174 148 122 161 211 221 208 211 232 207 196 206 198 199 199 200 197 199 201 200 201 204 207 209 209 207 205 210 209 209 213 207 207 217 216 214 218 225 228 225 227 223 217 213 205 195 196 201 204
187 181 169 183 206 197 50 228 215 244 197 214 203 203 202 198 202 203 202 202 203 204 207 210 211 208 209 209 214 215 214 211 216 220 229 229 224 227 230 230 229 226 220 215 219 224 227 223 223
199 209 202 123 327 197 199 226 262 257 192 219 243 188 196 201 203 207 204 204 204 205 211 214 213 211 213 213 214 216 217 222 224 229 233 234 236 233 233 233 232 229 224 216 222 232 241 240 234
207 195 169 192 187 209 215 214 221 204 215 207 215 219 212 205 207 207 205 207 208 209 212 219 221 220 217 218 217 218 223 224 224 228 233 234 235 233 236 235 230 230 228 221 223 229 242 243 238
180 200 206 206 203 238 182 223 228 206 220 217 212 213 214 218 214 206 205 208 212 212 219 221 219 217 219 219 221 221 226 225 224 229 231 234 233 237 240 237 228 229 229 225 226 226 238 240 239
206 209 198 199 191 180 309 84 1 344 4 293 234 190 215 206 209 214 219 223 214 218 215 223 221 218 223 222 222 222 224 228 227 227 231 233 233 235 238 235 227 229 232 227 227 233 238 240 238
Height
1486 1489 1495 1497 1496 1482 1476 1468 1463 1470 1474 1478 1480 1482 1485 1486 1490 1505 1510 1513 1516 1520 1521 1523 1527 1529 1532 1534 1536 1536 1539 1540 1542 1543 1544 1546 1547 1548 1548 1549 1549 1550 1551 1551 1552 1552 1553 1552 1553
1487 1491 1495 1489 1488 1479 1470 1458 1469 1469 1473 1479 1485 1487 1490 1496 1500 1506 1510 1513 1518 1521 1524 1525 1528 1532 1534 1536 1538 1540 1542 1544 1545 1546 1548 1548 1548 1550 1551 1551 1552 1553 1554 1555 1555 1555 1555 1556 1556
1487 1491 1490 1481 1477 1473 1463 1457 1462 1472 1478 1481 1485 1488 1493 1500 1504 1508 1512 1515 1520 1523 1525 1527 1530 1533 1536 1538 1541 1542 1544 1545 1547 1548 1550 1551 1552 1552 1554 1554 1555 1556 1557 1558 1558 1558 1559 1559 1559
1486 1491 1486 1476 1470 1463 1454 1457 1461 1476 1480 1481 1484 1492 1499 1503 1506 1509 1513 1517 1521 1523 1526 1529 1532 1535 1537 1539 1542 1544 1546 1548 1549 1550 1551 1553 1554 1555 1556 1557 1558 1559 1560 1560 1560 1560 1561 1561 1562
1484 1482 1476 1473 1465 1457 1456 1462 1468 1474 1477 1479 1484 1493 1500 1506 1508 1511 1515 1519 1521 1525 1527 1530 1534 1536 1538 1541 1543 1546 1548 1550 1551 1552 1553 1554 1556 1557 1558 1560 1561 1561 1562 1562 1563 1563 1563 1564 1564
1479 1474 1468 1469 1463 1455 1460 1464 1467 1472 1477 1480 1484 1494 1504 1507 1511 1513 1517 1521 1523 1525 1528 1532 1535 1538 1540 1542 1545 1547 1550 1551 1553 1554 1555 1556 1558 1560 1561 1562 1563 1564 1565 1565 1565 1565 1566 1567 1567
1470 1467 1462 1458 1458 1456 1460 1464 1465 1468 1474 1480 1486 1489 1504 1508 1512 1514 1519 1523 1525 1528 1530 1533 1536 1539 1541 1543 1546 1549 1551 1553 1554 1555 1557 1559 1560 1562 1563 1564 1565 1566 1566 1567 1567 1568 1568 1569 1570
1468 1465 1463 1453 1455 1455 1459 1464 1466 1469 1475 1481 1485 1490 1502 1504 1510 1515 1520 1524 1527 1530 1533 1535 1538 1540 1543 1545 1548 1551 1553 1555 1556 1557 1560 1561 1563 1564 1565 1566 1567 1567 1568 1569 1569 1570 1570 1571 1571
1466 1464 1460 1452 1451 1451 1458 1463 1467 1471 1477 1483 1486 1487 1491 1500 1508 1514 1519 1524 1528 1530 1534 1536 1539 1541 1544 1547 1550 1552 1554 1556 1558 1560 1562 1563 1565 1566 1566 1567 1568 1569 1570 1570 1571 1572 1572 1572 1572
1460 1457 1448 1446 1447 1449 1460 1463 1465 1472 1478 1484 1488 1490 1495 1500 1506 1511 1517 1523 1528 1531 1535 1538 1539 1542 1546 1549 1552 1554 1555 1558 1560 1561 1564 1565 1567 1567 1568 1569 1570 1571 1571 1572 1572 1573 1573 1574 1576
1455 1450 1450 1447 1449 1450 1456 1460 1466 1467 1475 1478 1484 1489 1495 1500 1506 1510 1516 1523 1527 1532 1536 1537 1540 1543 1547 1550 1553 1555 1559 1560 1562 1563 1565 1566 1567 1568 1570 1571 1571 1572 1572 1573 1574 1574 1574 1575 1576
1450 1452 1450 1452 1454 1455 1455 1458 1463 1464 1470 1475 1483 1489 1492 1499 1505 1509 1515 1522 1527 1531 1535 1537 1541 1544 1547 1551 1554 1557 1560 1562 1563 1564 1566 1568 1569 1571 1572 1573 1573 1574 1575 1575 1576 1575 1575 1576 1576
1451 1450 1453 1455 1458 1459 1457 1457 1461 1464 1470 1473 1483 1489 1494 1500 1507 1512 1517 1523 1527 1531 1534 1537 1541 1544 1548 1551 1555 1557 1561 1563 1564 1565 1566 1569 1570 1571 1572 1573 1574 1575 1575 1575 1575 1576 1576 1577 1577
1448 1448 1452 1457 1458 1459 1457 1459 1461 1464 1471 1474 1482 1489 1494 1500 1506 1513 1515 1520 1525 1529 1533 1537 1541 1545 1548 1551 1555 1558 1561 1563 1565 1566 1567 1569 1570 1571 1572 1573 1574 1574 1575 1575 1575 1576 1576 1577 1577
1446 1452 1453 1453 1456 1457 1458 1462 1462 1463 1470 1474 1482 1489 1495 1501 1507 1511 1515 1519 1523 1529 1532 1536 1541 1544 1547 1551 1555 1558 1560 1563 1565 1566 1567 1569 1571 1572 1573 1573 1574 1574 1574 1575 1576 1576 1577 1577 1578
1446 1450 1453 1448 1453 1456 1457 1456 1461 1464 1468 1472 1480 1488 1494 1500 1505 1511 1515 1519 1523 1527 1530 1534 1538 1542 1546 1549 1553 1557 1559 1563 1565 1567 1568 1569 1571 1572 1573 1574 1574 1574 1575 1576 1576 1577 1577 1578 1578
1442 1445 1445 1447 1451 1454 1455 1445 1454 1463 1466 1470 1476 1485 1492 1497 1503 1509 1513 1518 1520 1524 1528 1532 1536 1541 1545 1549 1552 1556 1559 1562 1565 1567 1569 1569 1571 1572 1574 1575 1574 1575 1575 1576 1576 1577 1577 1578 1578
1432 1436 1439 1442 1449 1453 1455 1444 1453 1460 1464 1467 1473 1482 1489 1495 1500 1507 1512 1516 1521 1524 1527 1531 1535 1540 1545 1548 1552 1555 1557 1560 1563 1567 1569 1569 1571 1572 1574 1575 1575 1575 1575 1576 1576 1577 1577 1578 1578
1430 1436 1436 1437 1444 1449 1449 1446 1453 1457 1462 1465 1470 1478 1486 1492 1499 1505 1510 1515 1519 1523 1525 1527 1532 1537 1542 1545 1548 1551 1554 1558 1562 1566 1566 1568 1571 1571 1573 1574 1574 1575 1576 1576 1577 1577 1577 1577 1578
1427 1434 1434 1444 1449 1449 1446 1445 1451 1457 1458 1460 1464 1473 1482 1489 1496 1502 1507 1512 1516 1519 1523 1527 1530 1535 1539 1542 1545 1548 1552 1557 1560 1563 1565 1568 1569 1570 1572 1573 1574 1574 1575 1575 1576 1576 1576 1577 1577
1429 1431 1435 1446 1454 1452 1446 1449 1454 1460 1459 1462 1465 1471 1479 1484 1490 1497 1503 1507 1512 1516 1520 1524 1529 1533 1536 1539 1542 1546 1551 1555 1558 1561 1564 1566 1568 1569 1570 1571 1572 1573 1574 1575 1575 1575 1575 1575 1576
1435 1431 1434 1444 1451 1453 1444 1456 1449 1454 1459 1460 1463 1468 1474 1480 1487 1493 1497 1502 1507 1512 1516 1521 1525 1529 1533 1536 1538 1542 1547 1550 1554 1558 1562 1564 1566 1567 1569 1570 1571 1572 1573 1573 1573 1574 1574 1574 1575
1432 1436 1440 1448 1448 1444 1453 1457 1432 1442 1455 1457 1460 1464 1469 1474 1479 1486 1491 1497 1502 1508 1511 1516 1520 1524 1528 1531 1535 1540 1544 1548 1552 1555 1558 1561 1563 1565 1566 1568 1570 1571 1572 1572 1572 1573 1573 1573 1574
1436 1440 1445 1449 1450 1465 1442 1447 1436 1428 1439 1447 1453 1458 1464 1469 1474 1480 1486 1491 1497 1502 1507 1511 1515 1519 1524 1527 1531 1536 1540 1545 1548 1549 1553 1557 1560 1562 1564 1566 1568 1569 1570 1571 1571 1571 1572 1573 1573
1437 1437 1459 1468 1470 1454 1440 1444 1429 1416 1428 1435 1443 1450 1456 1462 1468 1474 1479 1485 1490 1494 1499 1504 1508 1512 1518 1522 1526 1531 1535 1540 1544 1546 1548 1551 1555 1558 1561 1563 1565 1567 1569 1570 1570 1570 1571 1571 1572
1428 1423 1433 1450 1451 1447 1453 1443 1428 1422 1426 1432 1437 1445 1452 1459 1464 1467 1472 1477 1482 1487 1491 1496 1501 1506 1511 1516 1520 1525 1530 1534 1538 1542 1545 1548 1551 1554 1557 1560 1562 1564 1566 1568 1569 1569 1570 1570 1571
1431 1430 1418 1432 1438 1439 1437 1436 1432 1426 1432 1435 1436 1439 1445 1451 1456 1461 1467 1472 1476 1481 1484 1489 1494 1500 1504 1509 1515 1519 1524 1528 1532 1536 1540 1544 1548 1550 1553 1556 1558 1560 1562 1564 1565 1566 1568 1568 1568
1422 1420 1436 1434 1450 1444 1430 1432 1433 1425 1428 1433 1437 1439 1443 1447 1451 1456 1462 1467 1471 1476 1481 1485 1489 1492 1498 1503 1508 1512 1516 1521 1527 1531 1534 1538 1543 1545 1548 1551 1554 1556 1558 1560 1562 1563 1564 1565 1566
1425 1423 1427 1427 1429 1439 1439 1433 1416 1418 1422 1426 1431 1435 1440 1444 1448 1452 1457 1463 1467 1472 1475 1477 1482 1487 1492 1496 1501 1505 1509 1514 1519 1524 1528 1532 1537 1539 1542 1546 1549 1552 1554 1556 1558 1559 1560 1561 1562
1417 1419 1421 1428 1433 1437 1440 1428 1422 1422 1422 1424 1427 1432 1437 1441 1445 1449 1453 1457 1461 1464 1468 1469 1474 1479 1483 1488 1493 1497 1502 1506 1510 1515 1521 1526 1530 1532 1537 1540 1543 1547 1550 1552 1554 1555 1555 1557 1558